Home   Weather   Menominee   Past weeks

Flag for USA Past Weather in Menominee, Michigan, USA — Yesterday and Last 2 Weeks

Now
35 °F

Overcast.


Feels Like: 32 °F
Forecast: 31 / 49 °F
Wind: 3 mph from North

Location: Menominee Weather Reporting Station

Current Time: Apr 28, 2017 at 9:19:06 am

Latest Report: Apr 28, 2017 at 7:56 am


Visibility: 10 mi

Pressure: 29.92 "Hg

Humidity: 67%

Dew Point: 25 °F

Location of MenomineeLocation

Past Weather in Menominee — Graph

°F

Menominee Temperature Yesterday

Maximum temperature yesterday: 46 °F (at 12:43 am)
Minimum temperature yesterday: 36 °F (at 4:19 pm)
Average temperature yesterday: 39 °F

High & Low Weather Summary for the Past Weeks

 TemperatureHumidityPressure
High69 °F (Apr 16, 12:56 pm)100% (Apr 15, 4:08 am)30.51 "Hg (Apr 15, 4:08 am)
Low29 °F (Apr 14, 5:56 am)21% (Apr 16, 3:56 pm)29.32 "Hg (Apr 27, 6:22 am)
Average46 °F77%29.97 "Hg
* Reported Apr 13 7:56 am — Apr 28 7:56 am, Menominee, Weather by CustomWeather, © 2017

Note: Actual official high and low records may vary slightly from our data, if they occured in-between our weather recording intervals... More about our weather records

Advertising

Menominee Weather History for the Previous 24 Hours

Scroll right to see more
 ConditionsComfort  
Time TempWeatherWind HumidityBarometerVisibility
7:56 am
Fri, Apr 28
35 °FOvercast.3 mph67%29.92 "Hg10 mi
6:56 am34 °FOvercast.6 mph67%29.91 "Hg10 mi
5:56 am34 °FOvercast.13 mph64%29.89 "Hg10 mi
4:56 am34 °FMostly cloudy.14 mph70%29.88 "Hg10 mi
3:56 am34 °FOvercast.8 mph88%29.85 "Hg10 mi
3:17 am36 °FLight rain. Mostly cloudy.5 mph81%29.77 "Hg8 mi
2:56 am35 °FOvercast.8 mph78%29.82 "Hg10 mi
2:08 am36 °FMostly cloudy.7 mph81%29.75 "Hg10 mi
12:56 am36 °FOvercast.7 mph79%29.81 "Hg10 mi
12:18 am36 °FMostly cloudy.10 mph81%29.74 "Hg10 mi
11:56 pm
Thu, Apr 27
36 °FOvercast.9 mph79%29.79 "Hg10 mi
10:56 pm37 °FOvercast.6 mph76%29.77 "Hg10 mi
9:56 pm37 °FOvercast.7 mph79%29.76 "Hg10 mi
8:56 pm37 °FLight rain. Mostly cloudy.3 mph86%29.73 "Hg10 mi
7:56 pm37 °FOvercast.5 mph82%29.70 "Hg10 mi
6:56 pm37 °FPassing clouds.6 mph82%29.67 "Hg10 mi
6:36 pm37 °FBroken clouds.8 mph81%29.60 "Hg10 mi
5:56 pm37 °FMostly cloudy.8 mph86%29.65 "Hg10 mi
5:29 pm36 °FLight rain. Broken clouds.8 mph87%29.58 "Hg10 mi
4:56 pm36 °FLight rain. Fog.9 mph92%29.62 "Hg4 mi
4:37 pm37 °FLight rain. Mostly cloudy.10 mph87%29.55 "Hg10 mi
4:19 pm36 °FLight rain. Mostly cloudy.10 mph93%29.53 "Hg10 mi
3:56 pm37 °FRain. More clouds than sun.9 mph89%29.57 "Hg10 mi
2:56 pm38 °FLight rain. Mostly cloudy.10 mph90%29.53 "Hg10 mi
2:28 pm39 °FLight rain. Fog.8 mph93%29.44 "Hg5 mi
2:06 pm39 °FLight rain. Fog.10 mph93%29.42 "Hg5 mi
12:56 pm39 °FLight rain. Fog.5 mph96%29.44 "Hg4 mi
12:32 pm39 °FMore clouds than sun.7 mph87%29.38 "Hg9 mi
12:19 pm39 °FLight rain. Fog.6 mph87%29.36 "Hg6 mi
12:05 pm39 °FLight rain. Fog.7 mph93%29.35 "Hg2 mi
11:56 am39 °FLight rain. Fog.6 mph93%29.41 "Hg2 mi
10:56 am39 °FLow clouds.10 mph89%29.38 "Hg10 mi
9:56 am38 °FLight rain. Fog.7 mph93%29.38 "Hg4 mi
Weather by CustomWeather, © 2017

See weather overviewHow to use our weather pages